Regional Weather Roundup
Issued by NWS

Home | Current Version | Previous Version | Graphics & Text | Print | Product List | Glossary On
Versions: 1 2 3 4 5 6 7 8 9 10 11 12 13 14 15 16 17 18 19 20 21 22 23 24 25 26 27 28 29 30 31 32 33 34 35 36 37 38 39 40 41 42 43 44 45 46 47 48 49 50
000
ASUS43 KBIS 200910
RWRND

NORTH DAKOTA REGIONAL WEATHER ROUNDUP
NATIONAL WEATHER SERVICE BISMARCK ND
400 AM CDT THU JUL 20 2017

NOTE: "FAIR" INDICATES FEW OR NO CLOUDS BELOW 12,000 FEET WITH NO
SIGNIFICANT WEATHER AND/OR OBSTRUCTIONS TO VISIBILITY.


NDZ001>003-009>011-017-201000-
NORTHWEST NORTH DAKOTA

CITY           SKY/WX    TMP DP  RH WIND       PRES   REMARKS
WILLISTON        N/A    N/A N/A N/A MISG      29.96S
MINOT          CLEAR     62  57  83 E5        29.99R
MINOT AFB      CLEAR     63  61  91 N3        29.98R
$$

NDZ018>021-031>035-040>046-201000-
SOUTHWEST NORTH DAKOTA

CITY           SKY/WX    TMP DP  RH WIND       PRES   REMARKS
BISMARCK       CLOUDY    64  62  93 SE6       29.97F
DICKINSON      CLOUDY    63  57  81 S8        29.99S
GARRISON         N/A     66  61  84 E8        29.99S
HETTINGER ARPT PTCLDY    64  57  78 SE5       30.05R
$$

NDZ004>008-012>016-024-026-027-054-201000-
NORTHEAST NORTH DAKOTA

CITY           SKY/WX    TMP DP  RH WIND       PRES   REMARKS
GRAND FORKS    PTCLDY    59  59 100 W7        29.95R
GRND FRKS AFB  PTCLDY    60  59  99 NW6       29.96R
DEVILS LAKE    PTCLDY    64  63  96 W7        30.02R
$$

NDZ022-023-025-028>030-036>039-047>053-201000-
SOUTHEAST NORTH DAKOTA

CITY           SKY/WX    TMP DP  RH WIND       PRES   REMARKS
FARGO          CLEAR     64  63  96 N7        29.94R
JAMESTOWN      CLOUDY    62  60  93 N3        29.99R
$$





USA.gov is the U.S. government's official web portal to all federal, state and local government web resources and services.